Regional Weather Roundup
Issued by NWS

Home | Current Version | Previous Version | Graphics & Text | Print | Product List | Glossary Off
Versions: 1 2 3 4 5 6 7 8 9 10 11 12 13 14 15 16 17 18 19 20 21 22 23 24 25 26 27 28 29 30 31 32 33 34 35 36 37 38 39 40 41 42 43 44 45 46 47 48 49 50

000
ASUS43 KTOP 272159
RWRKS

WEATHER ROUNDUP FOR KANSAS
NATIONAL WEATHER SERVICE GOODLAND KS
400 PM CST FRI FEB 27 2015

NOTE:  "FAIR" INDICATES FEW OR NO CLOUDS BELOW 12,000 FEET WITH NO
SIGNIFICANT WEATHER AND/OR OBSTRUCTIONS TO VISIBILITY.

KSZ001>006-013>018-027>032-041>047-272300-
NORTHWEST KANSAS

CITY           SKY/WX    TMP DP  RH WIND       PRES   REMARKS
GOODLAND       FLURRIES  16   9  74 S23       30.17S WCI  -2
HAYS           CLOUDY    19   0  42 SE10G17   30.40S WCI   8
HILL CITY      CLOUDY    20   3  48 SE13      30.36F WCI   7
RUSSELL        CLOUDY    20   2  45 SE9       30.41F
$$

KSZ061>065-074>080-084>089-272300-
SOUTHWEST KANSAS

CITY           SKY/WX    TMP DP  RH WIND       PRES   REMARKS
DODGE CITY     LGT SNOW  16   8  71 SE10      30.34F WCI   4
ELKHART          N/A     14   4  64 SE18        N/A  WCI  -3
GARDEN CITY    CLOUDY    14   6  70 SE16      30.28F WCI  -2
GREAT BEND     CLOUDY    18   5  57 S10       30.42F WCI   6
LIBERAL        CLOUDY    16   7  67 SE13      30.29F WCI   2
$$

KSZ066>073-081>083-090>101-272300-
SOUTHEAST KANSAS

CITY           SKY/WX    TMP DP  RH WIND       PRES   REMARKS
CHANUTE        FLURRIES  19   5  54 VRB5      30.54S
COFFEYVILLE    CLOUDY    21   3  45 E6        30.54F
HUTCHINSON     LGT SNOW  17   9  70 SE6       30.48S
MEDICINE LODGE   N/A     15   9  76 SE5       30.46F
NEWTON         CLOUDY    16   5  62 SE8       30.49F
PARSONS        CLOUDY    21   0  39 VRB6      30.54F
WICHITA INTL   LGT SNOW  16   9  74 SE6       30.50S
WICHITA JABRA  LGT SNOW  15  10  80 SE7       30.49F
WICHITA MCCONL LGT SNOW  16  10  79 SE3       30.49F
WINFIELD       CLOUDY    19   6  57 SE6       30.52S
$$

KSZ007>012-019>026-033>040-048>060-102>105-272300-
NORTHEAST KANSAS

CITY           SKY/WX    TMP DP  RH WIND       PRES   REMARKS
CONCORDIA      MIX PCPN  19   1  45 SE8       30.47F
EMPORIA        CLOUDY    18   0  45 VRB5      30.51F
LAWRENCE       CLOUDY    18   0  45 E3        30.57S
MANHATTAN      CLOUDY    19   1  45 S6        30.53F
OLATHE IND     CLOUDY    19   0  43 VRB6      30.54S
OLATHE EXE     CLOUDY    19  -2  39 SE3       30.53S
SALINA         PTSUNNY   23  -1  35 S7        30.49F
TOPEKA BILLARD PTSUNNY   19   0  43 CALM      30.57R
TOPEKA FORBES  CLOUDY    19  -1  41 E5        30.54S
$$


USA.gov is the U.S. government's official web portal to all federal, state and local government web resources and services.